Content
SEND FEEDBACK

Daily
Averages
Monthly
Summary
French Polynesia

FAAA, FRENCH POLYNESIA


Home > Oceania > French Polynesia
Elevation: 7 feet     Latitude: 17 33S     Longitude: 149 37W

WEATHER
 
SELECT A DAY
Number of Records: 217,445;   Date Range: 6/30/96 - 12/19/14
 
SHARE

PRINT THIS DATA

[ ← Previous Day ]
WEATHER ALMANAC - JANUARY 26, 2014
[ Next Day → ]
[ °C ]   °F
Weather ElementAverageHighLow
Temperature81.5 °F87.8 °F (1:00 pm)77 °F (1:30 am)
Dewpoint70.7 °F73.4 °F (1:30 pm)66 °F (5:00 am)
Humidity68.8 %79 % (6:30 pm)48 % (11:00 am)
Barometer29.85 in29.89 in (7:00 am)29.80 in (3:30 am)
Wind Speed9 mph16.1 mph (6:30 am)
Weather ElementAverage
Visibility7.5 mi
Wind DirectionENE (53.3 °)

Weather ElementTotal
Precipitation---
Cooling Degree Days17.4 (Base 65)
Growing Degree Days32.4 (Base 50)
Averaged from 55 records on January 26, 2014
WEATHER CONDITIONS BREAKOUT
WIND DIRECTION BREAKOUT
WEATHER BY HOUR - JANUARY 26, 2014
[ °C ]   °F
Local TimeTemperatureDewpointHumidityBarometerVisibilityWind DirectionWind SpeedGust SpeedPrecipitationEventsConditions
12:30 AM78.8 °F68.0 °F69 %29.86 in6.2 miENE (60°)5.8 mphPartly Cloudy
1:00 AM78.8 °F68.0 °F69 %29.83 in6.2 miENE (60°)5.8 mphPartly Cloudy
1:30 AM77.0 °F68.0 °F74 %29.83 in6.2 miENE (60°)8.1 mphPartly Cloudy
2:00 AM78.0 °F68.0 °F63 %29.84 in12.0 miENE (60°)5.8 mphPartly Cloudy
2:00 AM77.0 °F68.0 °F74 %29.83 in6.2 miENE (60°)5.8 mphPartly Cloudy
2:30 AM77.0 °F69.8 °F78 %29.83 in6.2 miNE (50°)5.8 mphScattered Clouds
3:00 AM78.8 °F68.0 °F69 %29.83 in6.2 miENE (70°)4.6 mphMostly Cloudy
3:30 AM78.8 °F68.0 °F69 %29.80 in6.2 miENE (60°)6.9 mphOvercast
4:00 AM78.8 °F66.2 °F65 %29.80 in6.2 miENE (60°)4.6 mph
4:30 AM77.0 °F66.2 °F69 %29.83 in6.2 miENE (60°)3.5 mph
5:00 AM77.0 °F66.0 °F61 %29.84 in34.0 miENE (70°)3.5 mphClear
5:00 AM77.0 °F66.2 °F69 %29.83 in6.2 miVariable3.5 mphScattered Clouds
5:30 AM77.0 °F68.0 °F74 %29.83 in6.2 miENE (60°)4.6 mphScattered Clouds
6:00 AM78.8 °F69.8 °F74 %29.86 in6.2 miNE (50°)6.9 mphPartly Cloudy
6:30 AM78.8 °F71.6 °F78 %29.86 in6.2 miNE (40°)16.1 mphPartly Cloudy
7:00 AM77.0 °F69.8 °F78 %29.89 in6.2 miENE (70°)10.4 mphMostly Cloudy
7:30 AM78.8 °F69.8 °F74 %29.89 in6.2 miENE (70°)6.9 mphMostly Cloudy
8:00 AM81.0 °F69.0 °F60 %29.89 in12.0 miENE (70°)4.6 mphPartly Cloudy
8:00 AM80.6 °F69.8 °F70 %29.89 in6.2 miENE (70°)4.6 mphScattered Clouds
8:30 AM84.2 °F69.8 °F62 %29.89 in6.2 miNE (40°)5.8 mphScattered Clouds
9:00 AM84.2 °F69.8 °F62 %29.86 in6.2 miNNE (30°)5.8 mphScattered Clouds
9:30 AM86.0 °F71.6 °F62 %29.86 in6.2 miNE (40°)6.9 mphPartly Cloudy
10:00 AM86.0 °F69.8 °F58 %29.89 in6.2 miNNE (30°)11.5 mphScattered Clouds
10:30 AM86.0 °F71.6 °F62 %29.89 in6.2 miNE (40°)8.1 mphMostly Cloudy
11:00 AM86.0 °F69.0 °F48 %29.88 in16.0 miNE (40°)9.2 mphMostly Cloudy
11:00 AM86.0 °F69.8 °F58 %29.86 in6.2 miNE (40°)9.2 mphMostly Cloudy
11:30 AM86.0 °F69.8 °F58 %29.86 in6.2 miNE (50°)10.4 mphMostly Cloudy
12:00 PM86.0 °F71.6 °F62 %29.86 in6.2 miNE (40°)9.2 mphMostly Cloudy
12:30 PM86.0 °F71.6 °F62 %29.83 in6.2 miNE (40°)10.4 mphScattered Clouds
1:00 PM87.8 °F71.6 °F58 %29.83 in6.2 miNNE (30°)11.5 mphScattered Clouds
1:30 PM86.0 °F73.4 °F66 %29.83 in6.2 miNE (40°)11.5 mphMostly Cloudy
2:00 PM85.0 °F73.0 °F60 %29.83 in16.0 miNE (40°)11.5 mphMostly Cloudy
2:00 PM84.2 °F73.4 °F70 %29.83 in6.2 miNE (40°)11.5 mphMostly Cloudy
2:30 PM86.0 °F73.4 °F66 %29.80 in6.2 miNE (50°)10.4 mphPartly Cloudy
3:00 PM86.0 °F73.4 °F66 %29.80 in6.2 miNE (40°)11.5 mphScattered Clouds
3:30 PM84.2 °F73.4 °F70 %29.80 in6.2 miNE (50°)12.7 mphMostly Cloudy
4:00 PM84.2 °F73.4 °F70 %29.80 in6.2 miNE (50°)12.7 mphScattered Clouds
4:30 PM84.2 °F73.4 °F70 %29.80 in6.2 miENE (60°)13.8 mphPartly Cloudy
5:00 PM84.0 °F73.0 °F63 %29.82 in12.0 miNE (50°)13.8 mphScattered Clouds
5:00 PM84.2 °F73.4 °F70 %29.80 in6.2 miNE (50°)13.8 mphPartly Cloudy
5:30 PM82.4 °F73.4 °F74 %29.80 in6.2 miNE (50°)13.8 mphPartly Cloudy
6:00 PM82.4 °F73.4 °F74 %29.83 in6.2 miNE (50°)12.7 mphPartly Cloudy
6:30 PM80.6 °F73.4 °F79 %29.86 in6.2 miNE (50°)11.5 mphPartly Cloudy
7:00 PM80.6 °F71.6 °F74 %29.86 in6.2 miENE (70°)10.4 mphPartly Cloudy
7:30 PM80.6 °F71.6 °F74 %29.86 in6.2 miENE (70°)10.4 mphPartly Cloudy
8:00 PM80.0 °F71.0 °F69 %29.88 in12.0 miENE (70°)9.2 mphScattered Clouds
8:00 PM80.6 °F71.6 °F74 %29.86 in6.2 miENE (70°)9.2 mphPartly Cloudy
8:30 PM80.6 °F71.6 °F74 %29.89 in6.2 miENE (70°)11.5 mphPartly Cloudy
9:00 PM78.8 °F71.6 °F78 %29.86 in6.2 miENE (70°)10.4 mphPartly Cloudy
9:30 PM78.8 °F71.6 °F78 %29.86 in6.2 miENE (70°)10.4 mphPartly Cloudy
10:00 PM78.8 °F71.6 °F78 %29.86 in6.2 miENE (70°)12.7 mphPartly Cloudy
10:30 PM80.6 °F71.6 °F74 %29.89 in6.2 miENE (60°)8.1 mphPartly Cloudy
11:00 PM80.0 °F72.0 °F70 %29.89 in9.0 miNE (50°)8.1 mphRainLight Rain Showers
11:00 PM80.6 °F71.6 °F74 %29.89 in6.2 miNE (50°)8.1 mphRainLight Rain Showers
11:30 PM78.8 °F71.6 °F78 %29.86 in6.2 miENE (70°)9.2 mphPartly Cloudy
Hourly data recorded from NTAA, located miles away from Faaa, French Polynesia







STORIES FROM OUR PARTNERS